Location: Carrières
(48.9495°N, 2.0407°E)
Time: 15:57:09
(UTC+00:00)

Cosmos 2263 Rocket - Visible Passes

Search period start: 30 September 2023 00:00
Search period end: 10 October 2023 00:00
Orbit: 824 x 847 km, 71.0° (Epoch: 30 September)

Date Brightness Start Highest point End Pass type
(mag) Time Alt. Az. Time Alt. Az. Time Alt. Az.
02 Oct 4.3 05:19:36 10° SSE 05:24:31 32° ESE 05:29:25 10° NE visible
03 Oct 4.4 05:02:52 10° SSE 05:07:39 30° ESE 05:12:26 10° NE visible
04 Oct 4.4 04:46:08 10° SSE 04:50:47 27° ESE 04:55:25 10° NE visible
05 Oct 4.5 04:29:25 10° SSE 04:33:56 25° ESE 04:38:25 10° NE visible
06 Oct 4.5 04:12:44 10° SSE 04:17:04 23° ESE 04:21:24 10° NE visible
07 Oct 4.6 03:56:04 10° SSE 04:00:12 22° ESE 04:04:22 10° NE visible
08 Oct 4.6 03:39:25 10° SE 03:43:21 20° E 03:47:18 10° NE visible
08 Oct 2.2 05:21:03 10° SW 05:26:40 74° WNW 05:32:17 10° NNE visible
09 Oct 4.7 03:22:48 10° SE 03:26:30 18° E 03:30:13 10° ENE visible
09 Oct 2.1 05:04:08 10° SSW 05:09:45 80° WNW 05:15:22 10° NNE visible
